Regional Weather Roundup
Issued by NWS

Home | Current Version | Previous Version | Text Only | Print | Product List | Glossary On
Versions: 1 2 3 4 5 6 7 8 9 10 11 12 13 14 15 16 17 18 19 20 21 22 23 24 25 26 27 28 29 30 31 32 33 34 35 36 37 38 39 40 41 42 43 44 45 46 47 48 49 50
000
ASUS44 KJAN 281110
RWRMS

MISSISSIPPI HOURLY WEATHER ROUNDUP
NATIONAL WEATHER SERVICE JACKSON MS
600 AM CDT TUE MAR 28 2017

NOTE: "FAIR: INDICATES FEW OR NO CLOUDS BELOW 12,000 FEET WITH NO
SIGNIFICANT WEATHER AND/OR OBSTRUCTIONS TO VISIBILITY.

MSZ001>002-007>008-010>013-018>021-025>028-034>036-281200-
NORTHWEST MISSISSIPPI

CITY           SKY/WX    TMP DP  RH WIND       PRES   REMARKS
BATESVILLE     PTSUNNY   58  57  96 CALM      29.94R
CLEVELAND      FAIR      61  61 100 N3        29.92R
GREENWOOD      CLOUDY    68  65  90 S7        29.92R
GREENVILLE     PTCLDY    59  56  89 CALM      29.93R
OXFORD         MOCLDY    57  55  94 CALM      29.96R
TUNICA         SUNNY     54  54 100 N3        29.95R FOG
$$

MSZ003>006-009-014>017-022>024-029>033-037>039-281200-
NORTHEAST MISSISSIPPI

CITY           SKY/WX    TMP DP  RH WIND       PRES   REMARKS
COLUMBUS AFB   CLOUDY    64  64 100 SE5       29.93R
GOLDN TRIANGLE MOCLDY    66  59  77 SW3       29.90R
STARKVILLE     CLOUDY    64  63  94 SW5       29.95R
TUPELO         CLOUDY    62  59  90 N5        29.93R
$$

MSZ040-058-281200-
CENTRAL MISSISSIPPI

CITY           SKY/WX    TMP DP  RH WIND       PRES   REMARKS
JACKSON INTL   CLOUDY    66  63  90 S7        29.95R
JACKSON HAWKNS CLOUDY    65  63  93 SE3       29.96R FOG
MERIDIAN KEY   CLOUDY    68  68 100 CALM      29.97R
MERIDIAN NAS   MOCLDY    69  63  81 W7        29.96R
$$

MSZ059>079-281200-
SOUTH MISSISSIPPI

CITY           SKY/WX    TMP DP  RH WIND       PRES   REMARKS
BROOKHAVEN     CLOUDY    70  66  88 CALM      29.98R FOG
HATTIESBURG    MOCLDY    67  65  93 CALM      29.98R
MCCOMB         CLOUDY    69  66  90 SW6       29.97R FOG
NATCHEZ        NOT AVBL
PINE BELT      CLOUDY    68  64  88 S3        29.99R
$$

MSZ080>082-281200-
COASTAL MISSISSIPPI

CITY           SKY/WX    TMP DP  RH WIND       PRES   REMARKS
BILOXI         PTCLDY    71  68  92 SW8       29.98R
PASCAGOULA     CLOUDY    71  67  87 CALM      29.99R
GULFPORT       PTCLDY    71  68  90 CALM      29.97R
$$

LAZ007>009-015>016-023>026-281200-
NORTHEAST LOUISIANA

CITY           SKY/WX    TMP DP  RH WIND       PRES   REMARKS
BASTROP        CLOUDY    69  68  98 CALM      29.94R
TALLULAH/VBURG PTCLDY    66  65  96 CALM      29.95R FOG
$$



USA.gov is the U.S. government's official web portal to all federal, state and local government web resources and services.